Regional Weather Roundup
Issued by NWS

Home | Current Version | Previous Version | Text Only | Print | Product List | Glossary Off
Versions: 1 2 3 4 5 6 7 8 9 10 11 12 13 14 15 16 17 18 19 20 21 22 23 24 25 26 27 28 29 30 31 32 33 34 35 36 37 38 39 40 41 42 43 44 45 46 47 48 49 50

000
ASUS43 KIND 010659
RWRIN

WEATHER ROUNDUP FOR INDIANA
NATIONAL WEATHER SERVICE INDIANAPOLIS IN
300 AM EDT SAT AUG 01 2015

NOTE: "FAIR" INDICATES FEW OR NO CLOUDS BELOW 12,000 FEET WITH NO
SIGNIFICANT WEATHER AND/OR OBSTRUCTIONS TO VISIBILITY.

* - STATION DOES NOT REPORT WEATHER SUCH AS PRECIPITATION OR FOG.

+ - STATION NOT QUALITY CONTROLLED BY THE NATIONAL WEATHER SERVICE.
    USE DATA WITH CAUTION...ESPECIALLY DEWPOINT AND RELATIVE
    HUMIDITY OBSERVATIONS.

INZ001>003-010>013-019-020-010800-
NORTHWEST INDIANA

CITY           SKY/WX    TMP DP  RH WIND       PRES   REMARKS
KNOX *+        CLEAR     57  55  94 CALM      29.98S
MONTICELLO +   CLEAR     64  58  83 W3        29.99S
RENSSELAER +   CLEAR     63  57  82 W6        30.00S

$$

LMZ046-743>745-010800-
SOUTHERN LAKE MICHIGAN

STATION/POSITION TIME  TEMP    WIND        PRES    WAVE
                       AIR SEA DIR/SP/G            HT
                 (UTC) (F)     (DEG/KT/KT) (MB)    (FT)
BURNS HARBOR     0600   75     300/ 10/ 11 1015.6R
MICHIGAN CITY    0600   75     280/ 14/ 16   N/A
5NW MICH CITY    0600   75 74  310/ 12/ 16   N/A     2

$$

INZ004-005-014>016-021>024-010800-
NORTH CENTRAL INDIANA

CITY           SKY/WX    TMP DP  RH WIND       PRES   REMARKS
GOSHEN         PTCLDY    61  55  81 CALM      29.97S
SOUTH BEND     CLEAR     63  57  81 W6        29.98S
WARSAW +       CLEAR     61  55  82 SW3       29.98F

$$

INZ006>009-017-018-025>027-010800-
NORTHEAST INDIANA

CITY           SKY/WX    TMP DP  RH WIND       PRES   REMARKS
ANGOLA *+      CLEAR     55  54  94 CALM      29.96S
FORT WAYNE     PTCLDY    61  56  83 W5        29.98S

$$

INZ028-029-035-036-043>045-051>053-010800-
WEST CENTRAL INDIANA

CITY           SKY/WX    TMP DP  RH WIND       PRES   REMARKS
CRAWFORDSVL +  CLEAR     61  59  95 W3          N/A
GREENCASTLE +  CLEAR     68  54  60 CALM      30.02F
LAFAYETTE      CLEAR     61  58  90 CALM      29.99F
TERRE HAUTE    CLEAR     65  61  87 W3        30.02S

$$

INZ030>032-037>040-046>048-054>057-064-065-010800-
CENTRAL INDIANA

CITY           SKY/WX    TMP DP  RH WIND       PRES   REMARKS
GREENWOOD *+   CLEAR     63  59  88 CALM      30.01F
INDIANAPOLIS   CLEAR     68  59  73 NW7       29.99F
-EAGLE CREEK   CLEAR     69  61  75 NW3       30.00F
KOKOMO *+      CLEAR     61  54  77 W3        30.00S
MT COMFORT *+  CLEAR     64 N/A N/A CALM      30.01S
SHELBYVILLE    CLEAR     64  60  87 CALM      29.99F

$$

INZ033-034-041-042-049-050-058-059-010800-
EAST CENTRAL INDIANA

CITY           SKY/WX    TMP DP  RH WIND       PRES   REMARKS
MUNCIE         CLEAR     63  59  87 CALM      29.99F

$$

INZ060-061-067>069-081>083-085>088-010800-
SOUTHWEST INDIANA

CITY           SKY/WX    TMP DP  RH WIND       PRES   REMARKS
EVANSVILLE     CLEAR     73  69  87 CALM      30.02F
HUNTINGBURG *+ MOCLDY    70  66  88 CALM      30.01F

$$

INZ062-063-066-070>080-084-089>092-010800-
SOUTH CENTRAL AND SOUTHEAST INDIANA

CITY           SKY/WX    TMP DP  RH WIND       PRES   REMARKS
BLOOMINGTON    CLEAR     63  60  90 CALM      30.02F
MADISON *+     CLEAR     64  61  88 SW3       30.03S
SEYMOUR +      CLEAR     68  61  77 W5        30.00F

$$




USA.gov is the U.S. government's official web portal to all federal, state and local government web resources and services.